Dewpoint
52 52 53 53 52 52 53 53 53 54 53 54 54 55 55 56 56 57 58 58 58 59 59 59 60 60 60 60 61 61 60 56 45 43 35 48 58 62 63 64 64 65 64 49 28 25 18 17 18 19 23 27 34 31 33 33 30 37 23 17 18 14 15 20 12 13 21 13 18 16 15 12 13 18 18 20 19 16 23 20 23 27 27 28 31 34 54 59
52 52 52 52 52 52 53 53 53 53 53 53 54 54 55 55 56 56 57 58 58 59 59 60 60 60 60 60 61 60 58 53 41 32 42 56 60 62 63 64 65 65 61 43 23 19 14 12 15 18 18 20 35 30 33 29 33 27 19 19 17 17 21 15 14 15 12 17 16 15 15 12 11 15 20 16 15 16 17 18 21 22 24 29 31 33 50 58
51 52 52 52 52 52 52 52 53 53 53 53 54 54 54 55 55 56 57 58 58 58 59 60 60 60 60 60 60 59 57 50 34 27 45 60 62 63 64 64 64 65 51 36 23 18 15 12 13 15 14 15 22 22 29 26 28 23 28 17 12 23 19 20 17 19 19 18 16 16 17 17 17 15 21 15 13 16 15 14 18 19 20 26 29 33 47 57
51 52 51 52 52 52 52 52 52 52 53 53 53 53 54 55 55 56 56 57 58 58 59 59 60 60 60 60 60 60 52 42 24 33 46 62 61 62 63 63 63 62 53 37 28 23 19 17 15 15 12 11 16 25 19 25 24 24 16 14 19 18 15 19 20 19 19 19 17 16 19 15 19 17 19 15 13 15 15 14 16 18 16 23 30 33 47 55
52 51 51 51 51 52 51 52 52 52 52 52 53 53 54 54 55 55 56 56 57 58 59 59 59 60 60 60 59 57 53 17 20 39 53 61 61 62 61 61 63 52 42 32 25 21 18 16 14 16 11 11 15 14 14 20 24 23 13 20 19 17 14 20 21 22 21 20 19 19 17 16 20 20 19 16 13 12 11 12 14 15 17 22 34 35 45 52
52 51 51 51 51 51 51 51 51 52 52 52 52 53 53 54 55 55 55 56 57 58 58 59 59 59 60 60 59 58 39 -2 35 46 57 59 60 59 59 60 58 41 33 24 23 21 18 16 15 12 11 9 10 4 16 19 22 10 18 19 20 22 22 22 21 24 23 20 18 17 18 20 19 17 18 16 15 13 20 22 23 23 23 29 34 40 45 50
52 51 52 51 51 51 51 51 51 51 52 52 52 53 53 54 54 55 55 56 56 57 58 59 59 59 59 58 57 48 30 27 36 53 59 60 58 55 59 59 59 34 28 26 22 20 18 13 15 11 9 13 9 15 17 14 21 14 17 19 22 22 22 24 24 24 23 21 19 21 21 18 18 16 20 20 18 17 23 26 27 26 24 30 38 41 42 48
52 51 51 52 51 52 51 51 51 52 52 53 52 53 53 53 54 54 55 55 56 57 58 58 59 59 58 58 47 33 25 34 44 51 57 57 48 46 54 40 37 39 32 28 20 18 16 12 10 15 8 3 7 11 19 15 15 8 16 21 23 23 23 23 23 22 23 22 21 21 19 18 18 19 22 20 20 19 21 24 25 26 25 27 36 39 40 45
52 50 51 52 50 52 51 51 51 52 52 52 53 53 53 54 54 54 55 55 56 57 57 58 58 59 58 51 38 24 15 47 50 48 47 44 41 45 48 39 34 31 29 27 24 22 17 13 16 11 8 15 17 17 19 13 7 20 20 22 22 23 22 22 22 22 22 21 21 20 19 20 21 22 20 19 19 20 25 23 24 27 25 24 28 37 37 41
52 51 51 51 51 52 51 51 51 51 52 52 53 53 53 54 54 54 55 55 56 56 57 58 58 58 56 49 28 11 45 49 48 45 43 42 37 39 39 38 33 29 29 26 25 23 20 16 15 18 19 18 19 20 23 19 18 23 21 21 22 23 23 24 22 22 22 23 21 20 18 19 22 20 13 17 23 25 25 23 23 25 24 24 24 27 36 39
52 52 50 50 53 52 51 51 51 51 51 52 53 53 53 53 54 54 55 55 56 56 57 57 58 57 53 39 17 7 48 51 46 40 41 41 39 36 41 39 35 32 28 28 29 29 29 23 27 23 29 13 20 20 22 23 23 22 22 22 22 23 24 23 23 22 22 22 22 21 20 21 21 22 17 22 26 26 23 22 24 25 24 23 24 24 30 36
52 52 51 51 51 51 51 52 52 52 51 52 53 53 53 53 54 55 55 56 56 57 57 57 58 55 42 27 13 36 45 46 44 40 42 43 37 40 41 37 38 41 33 26 33 38 37 29 27 20 15 20 15 20 22 24 24 23 22 16 21 22 21 22 22 23 24 21 23 22 21 19 21 19 20 22 25 25 23 23 23 25 24 25 25 26 28 31
53 53 52 52 52 52 51 51 51 52 52 52 53 53 53 54 54 55 56 56 56 57 57 58 58 54 46 15 41 47 46 45 43 40 38 41 40 38 40 41 38 35 36 31 34 38 35 32 29 21 25 22 20 18 24 25 24 23 21 20 19 17 16 23 24 23 23 23 23 23 15 11 14 20 18 24 23 23 22 22 21 22 23 24 27 28 28 29
54 54 54 53 52 52 52 52 52 52 52 53 53 53 54 54 55 56 56 56 57 57 58 57 58 51 38 20 43 45 47 46 41 39 40 39 38 43 39 39 36 34 38 32 37 37 37 31 29 25 27 23 20 28 24 24 24 19 20 20 17 16 14 24 23 23 21 23 23 23 19 13 15 19 23 26 24 23 22 21 22 22 22 24 27 29 29 29
55 55 54 55 55 54 54 53 53 53 53 53 53 54 55 55 56 56 56 56 57 58 58 57 57 45 14 32 40 48 59 46 38 42 43 41 34 36 33 34 34 33 31 32 31 33 31 33 25 20 23 27 26 26 19 19 19 21 15 16 20 21 22 23 24 23 19 22 23 22 22 18 15 20 23 25 25 23 22 21 21 22 22 23 24 25 27 27
56 55 55 55 55 55 55 55 55 55 54 54 54 55 55 56 56 56 57 57 58 57 58 59 47 40 17 12 45 55 47 38 36 46 45 40 43 38 38 36 35 33 31 31 34 33 31 29 27 27 24 25 23 20 19 21 20 19 17 22 21 19 18 20 23 24 24 22 23 21 17 17 14 22 24 24 25 23 22 21 23 23 23 24 24 25 24 26
56 56 56 56 56 56 56 55 56 56 55 55 55 56 56 56 56 57 57 57 57 55 57 37 30 25 10 31 35 37 36 45 43 46 43 38 39 36 36 35 31 31 32 33 33 35 30 27 29 32 25 20 20 20 20 22 21 21 20 17 26 21 13 13 23 24 29 22 21 22 20 19 18 18 23 25 24 24 22 22 22 22 23 24 27 26 25 25
57 57 57 57 56 56 56 56 56 56 55 55 55 55 55 56 57 55 57 57 55 47 39 36 35 28 12 27 25 26 44 41 46 39 42 35 38 33 34 31 32 31 31 30 31 30 30 27 28 22 23 22 21 21 21 17 21 23 22 20 19 20 18 15 19 23 23 23 21 20 21 21 20 20 19 21 24 23 22 22 22 21 22 23 24 25 26 28
57 57 57 57 57 57 56 56 56 55 56 56 56 55 55 56 59 55 42 39 29 23 17 23 17 10 7 18 38 41 45 43 46 45 34 36 36 35 34 33 33 30 30 24 28 27 31 32 32 28 23 21 18 17 19 18 16 15 21 20 16 18 16 13 14 25 24 20 20 19 17 16 18 18 17 18 18 22 22 22 22 22 23 23 24 25 27 30
57 57 57 57 57 57 57 57 56 55 55 55 53 52 52 41 41 30 36 36 29 20 27 21 16 24 28 32 40 43 45 46 36 38 41 39 38 33 32 32 38 33 29 25 31 27 35 28 26 24 22 19 19 17 17 19 18 16 20 21 14 15 13 20 22 26 26 22 19 18 17 17 18 18 19 18 18 19 19 22 24 24 25 26 26 25 27 28
58 58 58 57 57 57 57 57 56 56 55 54 51 44 18 19 17 18 25 25 34 29 34 29 33 30 34 41 42 39 34 35 38 37 40 42 37 32 30 30 30 26 26 32 31 30 28 26 25 21 20 21 19 22 22 21 19 16 18 20 14 24 13 21 24 26 26 22 16 18 20 22 20 18 18 18 19 19 20 20 21 22 23 25 27 28 30 29
58 58 58 58 57 57 57 57 55 55 55 54 50 33 24 42 45 45 38 14 26 38 35 36 38 33 37 39 43 43 41 32 35 39 43 41 33 29 30 27 25 20 32 31 28 27 28 23 21 23 25 24 24 23 22 19 20 23 17 20 23 19 23 25 24 25 25 23 18 19 21 20 18 18 18 17 17 18 19 21 21 20 21 23 24 26 28 31
58 58 58 58 57 57 57 56 55 54 53 49 43 36 40 46 51 51 41 28 22 37 30 32 26 29 35 38 39 42 32 28 28 37 36 40 33 31 29 24 23 20 28 24 23 25 24 24 21 26 25 23 23 23 23 23 23 22 23 21 20 28 20 13 23 26 25 21 19 23 22 21 19 18 19 19 18 18 20 21 24 26 25 25 23 25 28 30
58 58 58 58 57 57 57 56 55 55 52 50 46 43 52 53 52 48 48 20 20 24 26 30 30 26 31 28 38 36 26 28 30 33 39 36 30 34 30 25 21 24 23 23 18 19 17 26 27 26 24 21 21 23 23 21 19 28 28 24 20 25 22 18 18 21 24 24 28 26 25 20 15 10 11 17 22 23 25 27 28 31 35 34 38 39 38 32
58 57 58 58 57 57 56 54 53 52 52 50 44 50 51 53 53 51 38 15 14 24 36 33 39 34 32 40 41 34 31 29 32 38 39 35 32 29 26 30 27 24 19 22 19 18 21 28 27 25 27 22 23 22 25 26 17 19 29 25 19 17 20 21 24 23 18 19 29 28 18 12 7 10 19 18 25 22 22 24 24 26 30 35 33 36 38 42
57 58 58 57 57 57 55 53 52 52 50 47 48 50 49 53 53 47 31 12 13 24 26 19 33 21 35 31 39 34 26 18 36 40 38 40 37 30 29 27 28 20 19 24 21 22 24 28 29 27 27 30 27 20 27 24 18 18 19 30 25 21 23 25 23 27 18 13 28 28 16 12 12 10 8 7 8 13 19 22 22 22 21 21 30 35 34 36
56 57 57 57 57 56 53 51 53 51 48 44 49 50 51 51 53 49 19 18 13 28 17 31 26 26 41 31 29 21 11 15 40 39 37 40 33 32 26 24 26 27 29 26 24 20 28 27 31 32 28 32 29 22 28 24 19 16 35 33 24 23 28 28 27 28 21 31 33 25 22 18 16 12 10 21 18 16 15 16 19 20 23 25 25 30 34 36
55 56 57 57 57 55 55 53 52 48 46 50 52 50 52 52 53 46 18 13 15 31 25 24 25 37 37 36 35 12 25 31 26 34 37 38 38 31 28 23 23 24 28 26 19 34 27 33 31 31 30 28 24 31 33 26 19 27 34 34 30 23 31 31 30 27 30 26 18 29 30 21 21 17 14 14 17 15 13 12 15 19 21 22 29 31 33 35
54 54 56 57 56 56 54 53 51 50 50 53 52 51 52 51 45 31 13 12 31 21 35 21 36 32 33 33 23 26 27 28 26 36 40 35 36 32 25 25 26 23 27 25 15 32 30 36 30 29 29 24 30 31 34 27 22 34 34 33 32 33 33 32 26 30 28 26 22 26 29 19 13 17 12 12 21 18 15 11 7 13 23 28 28 32 34 34
53 53 54 57 56 56 55 54 53 52 52 52 53 52 50 46 32 17 16 15 28 19 23 28 24 26 29 24 21 23 23 27 35 35 35 31 33 33 29 33 27 27 31 27 32 31 32 31 37 32 29 31 31 33 37 34 33 35 36 33 33 33 33 30 30 27 25 20 22 26 28 19 14 17 9 12 16 11 3 5 9 21 30 28 32 37 41 35
52 52 53 56 54 55 54 53 54 54 53 54 52 52 46 37 24 13 16 17 22 31 26 25 26 27 25 20 20 24 25 32 33 33 32 32 31 30 28 28 30 31 31 32 31 34 31 31 33 34 31 32 30 33 36 37 37 39 32 27 27 27 28 26 27 28 18 11 26 26 29 26 19 17 15 9 16 16 9 9 8 12 25 34 37 33 33 34
52 51 53 56 57 56 52 52 55 55 54 53 54 41 32 23 22 17 15 14 16 27 25 25 27 26 23 20 26 23 22 31 31 30 27 29 30 26 26 21 27 25 22 24 24 35 33 33 34 35 35 31 34 29 30 35 36 34 25 23 18 13 19 14 22 21 17 13 23 22 27 24 23 19 6 16 14 15 18 17 16 17 19 32 36 37 36 39
51 51 53 54 55 55 55 55 54 54 55 53 48 40 28 21 17 18 17 17 13 32 25 32 29 26 24 22 23 23 28 21 32 30 27 30 27 29 27 18 26 23 13 23 24 27 26 35 34 35 32 31 31 23 28 26 29 27 23 22 17 9 12 13 14 17 16 24 25 22 29 20 16 15 17 15 14 12 10 13 22 22 22 21 34 38 35 41
51 51 50 51 53 56 55 54 55 55 51 50 45 39 28 23 20 28 21 20 27 29 28 31 29 27 23 22 27 28 24 23 29 30 31 31 28 28 27 23 23 24 25 26 20 24 17 26 30 34 27 30 31 23 26 23 27 25 29 23 19 13 12 13 13 11 16 12 21 26 20 20 20 5 19 18 21 22 24 23 27 30 31 34 35 39 38 39
50 50 50 51 52 53 54 54 55 56 52 47 44 31 23 21 24 20 20 30 31 29 30 30 29 29 26 31 30 25 26 27 30 30 30 29 26 27 26 24 28 27 27 18 24 25 21 16 30 31 33 29 30 30 23 26 30 30 29 31 25 21 14 9 18 18 20 17 22 24 18 17 15 19 23 23 23 23 22 24 27 27 28 33 33 34 34 34
49 47 48 46 49 52 53 54 55 56 51 46 37 30 26 27 26 30 25 28 28 30 29 29 31 27 25 26 32 28 33 35 30 30 29 29 26 25 27 26 24 25 24 19 22 15 23 16 35 34 31 27 29 29 26 29 21 28 31 28 26 27 22 17 24 25 22 15 12 20 20 21 18 15 15 15 13 16 22 24 24 26 29 34 35 37 36 37
43 44 42 45 47 52 54 53 55 54 50 45 36 30 31 33 40 39 40 30 32 27 30 23 27 23 25 24 28 28 30 30 33 29 25 32 28 28 27 26 27 24 23 18 19 23 17 18 31 33 30 31 34 35 33 32 37 32 26 26 33 31 31 21 11 22 17 11 13 16 14 9 9 10 14 10 14 13 13 12 20 22 25 28 34 37 43 41
42 41 42 45 47 52 54 53 53 52 48 43 35 35 41 35 42 39 40 34 31 32 26 22 26 28 26 24 25 27 31 24 29 29 25 27 22 27 28 27 27 26 24 20 14 27 24 13 28 31 35 34 33 32 29 37 35 32 28 37 25 20 19 18 17 13 13 16 15 11 9 12 13 10 6 15 12 11 13 18 17 18 23 26 28 32 39 38
41 38 33 39 47 50 53 54 52 49 44 37 35 35 39 39 42 41 39 39 38 32 27 27 27 31 33 25 26 28 29 24 29 28 24 27 23 26 23 29 30 28 27 22 17 23 27 18 25 30 30 33 32 30 24 27 34 34 33 29 35 26 21 18 18 20 12 11 15 18 12 13 21 13 11 10 8 12 8 9 10 9 10 18 28 36 38 39
39 29 23 49 50 50 52 53 49 47 41 36 36 36 40 38 40 41 41 37 38 32 36 34 34 27 29 30 31 27 31 27 28 28 25 29 25 28 24 28 25 30 27 25 22 28 22 19 15 30 33 31 26 29 25 28 28 26 25 24 30 29 31 26 28 20 12 12 10 10 10 16 14 11 9 9 10 11 9 14 21 19 23 29 33 35 39 40
41 35 33 50 50 50 52 50 44 41 39 38 38 37 39 38 39 40 41 41 40 41 42 39 37 34 37 31 28 32 31 29 30 28 27 26 25 23 28 27 30 29 28 27 27 27 25 19 17 27 28 26 25 29 26 28 27 26 24 23 24 24 23 21 20 27 24 18 17 12 12 16 10 14 10 10 11 10 25 27 28 28 25 32 39 40 40 42
32 21 27 51 50 50 49 42 41 42 40 36 35 37 37 42 39 38 39 40 39 37 38 38 39 39 39 36 39 36 36 34 32 31 32 28 28 24 32 28 28 31 28 28 27 30 23 28 22 23 27 27 26 32 31 31 33 29 25 24 25 25 24 21 17 21 24 22 25 23 19 18 16 18 19 17 17 20 23 31 28 27 28 31 36 41 43 43
32 18 45 45 49 49 46 38 38 39 38 38 39 38 40 39 38 39 39 40 38 38 37 36 36 37 38 36 36 37 37 36 37 32 35 33 32 30 36 28 31 30 27 32 34 30 31 28 23 21 24 30 30 33 33 32 32 32 32 33 30 24 25 23 19 20 22 23 20 19 18 18 20 21 22 22 28 28 28 28 28 26 30 33 34 39 41 41
29 29 36 46 49 49 42 30 31 34 35 38 39 37 39 39 38 37 37 38 37 37 36 36 35 34 35 37 36 35 35 33 38 35 34 36 33 34 35 30 28 30 29 29 28 36 26 29 25 21 20 22 27 30 29 34 33 30 28 29 32 32 33 32 28 25 21 23 23 18 16 18 23 25 26 26 29 24 24 26 30 33 33 37 35 37 41 41
30 32 35 39 45 46 38 33 30 30 34 33 34 33 36 37 39 36 36 37 38 37 37 35 36 36 34 36 36 36 36 34 33 37 36 36 34 38 33 37 30 29 30 44 38 40 30 31 26 21 19 18 19 22 22 26 28 29 31 31 31 31 31 29 25 25 22 24 25 22 19 18 16 21 22 23 22 21 22 23 29 35 34 35 39 42 41 41
29 22 27 35 39 41 41 40 38 34 32 32 30 31 33 33 37 38 37 36 36 37 36 37 38 37 35 36 34 33 35 36 35 34 35 35 35 37 39 31 33 33 36 38 38 35 31 34 30 25 23 21 21 24 35 32 29 28 30 31 31 33 31 32 28 24 22 24 23 24 24 22 21 22 21 21 24 24 22 23 24 31 32 35 36 38 39 41
28 23 26 30 37 37 38 38 38 37 32 32 29 31 30 30 31 37 38 34 36 37 38 36 37 36 35 35 34 33 34 34 35 34 36 35 36 37 37 40 34 38 36 35 36 34 32 28 31 30 29 26 25 24 26 32 30 29 30 31 32 34 33 32 28 25 25 26 22 25 25 27 24 23 23 24 23 22 26 24 22 23 31 38 40 40 38 36
30 27 28 31 34 33 34 34 36 36 36 32 29 31 30 30 30 31 38 37 37 36 36 37 37 37 35 34 35 33 33 33 34 33 36 36 36 37 35 39 37 36 36 39 39 33 34 28 31 31 31 29 28 26 27 27 27 27 30 31 31 32 33 31 31 30 30 26 22 25 27 27 24 23 23 23 23 22 22 20 23 24 26 35 37 37 36 36
31 31 29 29 29 32 35 35 36 36 33 32 29 30 30 30 29 30 33 35 35 35 36 33 35 35 34 35 36 33 33 32 32 34 35 34 35 36 34 38 38 41 38 39 39 38 34 30 34 34 32 32 31 31 31 30 29 29 28 28 27 32 33 33 32 32 31 30 29 27 26 27 26 25 23 24 26 26 24 25 27 27 30 33 33 33 36 37
32 30 31 34 35 29 31 34 35 35 34 33 32 30 29 29 29 30 32 34 33 34 37 34 33 36 36 34 34 34 35 34 34 33 36 36 35 36 35 35 35 36 36 36 39 40 37 31 35 35 33 33 34 35 34 33 33 31 32 30 30 29 29 34 33 33 32 31 31 29 29 28 27 25 26 24 25 27 30 28 27 29 30 30 29 28 30 37
35 32 33 28 29 30 31 33 33 33 34 36 33 32 31 30 29 31 30 33 33 33 35 33 33 33 35 36 34 34 37 36 36 36 35 36 34 37 35 35 35 35 37 37 35 37 36 32 38 35 31 31 34 34 34 34 33 32 32 32 32 31 29 29 31 34 32 31 31 31 30 29 28 29 29 29 28 29 27 27 27 31 29 29 30 29 29 30
37 40 38 34 27 27 27 30 31 31 30 33 33 31 31 31 31 29 28 33 33 32 34 35 35 33 32 33 33 34 36 37 37 38 37 40 41 41 40 40 40 40 35 33 35 34 34 33 32 32 30 29 33 34 33 33 32 31 31 32 32 32 31 31 31 33 34 32 30 29 29 29 30 30 28 29 28 28 29 27 31 31 32 32 31 31 31 31